Back to catalog

KUIPER-00375

AliveCommunicationsLEO
NORAD 68868·PAYLOAD·🇺🇸 United States

Launched Apr 28, 2026 from Cape Canaveral Space Force Station

Loading…

Next Passes (next 24 hours)

TLE

FreshSource: CelesTrak SupGP

Epoch: Sep 14, 2026, 17:36 UTC

1 68868C 26095E   26257.73379630 -.00009202  00000+0 -12046-2 0  2574
2 68868  51.9000 202.1902 0000888  79.9087 155.3580 14.79939385    19

Track KUIPER-00375 in real time with AllMySat

Download on the App Store